• In France
  • List of Countries
  • For 7 days
  • Water Temperature
  • Satellite Maps
  • Weather Map
  • Weather Widgets
  • user-avatar
    Login

    Hourly Weather Alajuela

    Today, 14 December, Thursday

    Time Temperature Precipitation Wind Pressure Humidity
    00:00 +18°C° 0 mm 2 mps 681 mmHg 87%
    01:00 +18°C° 0.1 mm 2 mps 681 mmHg 88%
    02:00 +18°C° 0.1 mm 2 mps 681 mmHg 88%
    03:00 +18°C° 0.1 mm 2 mps 680 mmHg 88%
    04:00 +18°C° 0.1 mm 2 mps 680 mmHg 88%
    05:00 +18°C° 0.1 mm 2 mps 680 mmHg 88%
    06:00 +18°C° 0.1 mm 2 mps 681 mmHg 88%
    07:00 +19°C° 0 mm 2 mps 681 mmHg 84%
    08:00 +20°C° 0 mm 2 mps 682 mmHg 79%
    09:00 +23°C° 0 mm 2 mps 682 mmHg 75%
    10:00 +23°C° 0 mm 2 mps 682 mmHg 73%
    11:00 +24°C° 0 mm 2 mps 682 mmHg 71%
    12:00 +25°C° 0 mm 2 mps 681 mmHg 69%
    13:00 +25°C° 0 mm 2 mps 681 mmHg 70%
    14:00 +24°C° 0 mm 2 mps 681 mmHg 72%
    15:00 +24°C° 0 mm 2 mps 680 mmHg 74%
    16:00 +23°C° 0 mm 1 mps 680 mmHg 79%
    17:00 +22°C° 0 mm 1 mps 680 mmHg 84%
    18:00 +20°C° 0 mm 1 mps 680 mmHg 89%
    19:00 +20°C° 0 mm 1 mps 680 mmHg 89%
    20:00 +20°C° 0 mm 1 mps 680 mmHg 89%
    21:00 +20°C° 0 mm 1 mps 681 mmHg 88%
    22:00 +20°C° 0 mm 1 mps 681 mmHg 88%
    23:00 +20°C° 0 mm 1 mps 680 mmHg 88%

    Tomorrow, 15 December, Friday

    Time Temperature Precipitation Wind Pressure Humidity
    00:00 +19°C° 0 mm 1 mps 680 mmHg 88%
    01:00 +19°C° 0 mm 1 mps 680 mmHg 88%
    02:00 +19°C° 0 mm 1 mps 680 mmHg 87%
    03:00 +19°C° 0 mm 1 mps 679 mmHg 87%
    04:00 +19°C° 0 mm 1 mps 680 mmHg 86%
    05:00 +18°C° 0 mm 1 mps 680 mmHg 85%
    06:00 +18°C° 0 mm 1 mps 680 mmHg 85%
    07:00 +20°C° 0 mm 1 mps 681 mmHg 76%
    08:00 +23°C° 0 mm 1 mps 682 mmHg 67%
    09:00 +25°C° 0 mm 1 mps 683 mmHg 58%
    10:00 +26°C° 0 mm 2 mps 682 mmHg 56%
    11:00 +27°C° 0 mm 2 mps 682 mmHg 54%
    12:00 +28°C° 0 mm 2 mps 682 mmHg 51%
    13:00 +28°C° 0 mm 2 mps 681 mmHg 55%
    14:00 +27°C° 0 mm 2 mps 681 mmHg 58%
    15:00 +26°C° 0 mm 2 mps 680 mmHg 61%
    16:00 +24°C° 0 mm 2 mps 680 mmHg 71%
    17:00 +22°C° 0 mm 1 mps 680 mmHg 81%
    18:00 +20°C° 0 mm 1 mps 679 mmHg 91%
    19:00 +20°C° 0 mm 1 mps 680 mmHg 90%
    20:00 +19°C° 0 mm 1 mps 680 mmHg 90%
    21:00 +19°C° 0 mm 1 mps 681 mmHg 90%
    22:00 +19°C° 0 mm 1 mps 681 mmHg 87%
    23:00 +19°C° 0 mm 1 mps 680 mmHg 84%

    Day after tomorrow, 16 December, Saturday

    Time Temperature Precipitation Wind Pressure Humidity
    00:00 +19°C° 0 mm 1 mps 680 mmHg 81%
    01:00 +19°C° 0 mm 1 mps 680 mmHg 81%
    02:00 +19°C° 0 mm 1 mps 680 mmHg 82%
    03:00 +19°C° 0 mm 1 mps 679 mmHg 82%
    04:00 +19°C° 0 mm 1 mps 680 mmHg 83%
    05:00 +19°C° 0 mm 1 mps 680 mmHg 84%
    06:00 +20°C° 0 mm 1 mps 680 mmHg 85%
    07:00 +22°C° 0 mm 1 mps 681 mmHg 78%
    08:00 +24°C° 0 mm 1 mps 682 mmHg 72%
    09:00 +26°C° 0 mm 2 mps 683 mmHg 65%
    10:00 +27°C° 0 mm 2 mps 683 mmHg 62%
    11:00 +28°C° 0 mm 2 mps 682 mmHg 59%
    12:00 +29°C° 0 mm 2 mps 682 mmHg 56%
    13:00 +28°C° 0.1 mm 2 mps 681 mmHg 60%
    14:00 +27°C° 0.1 mm 2 mps 681 mmHg 65%
    15:00 +26°C° 0.1 mm 2 mps 680 mmHg 69%
    16:00 +24°C° 0.1 mm 2 mps 680 mmHg 76%
    17:00 +23°C° 0.1 mm 2 mps 680 mmHg 83%
    18:00 +21°C° 0.1 mm 1 mps 680 mmHg 90%
    19:00 +21°C° 0 mm 1 mps 680 mmHg 90%
    20:00 +19°C° 0 mm 2 mps 680 mmHg 89%
    21:00 +19°C° 0 mm 2 mps 681 mmHg 89%
    22:00 +19°C° 0 mm 2 mps 681 mmHg 87%
    23:00 +18°C° 0 mm 2 mps 680 mmHg 86%

    17 December, Sunday

    Time Temperature Precipitation Wind Pressure Humidity
    00:00 +18°C° 0 mm 2 mps 680 mmHg 85%
    01:00 +18°C° 0 mm 2 mps 680 mmHg 83%
    02:00 +18°C° 0 mm 2 mps 679 mmHg 81%
    03:00 +18°C° 0 mm 2 mps 679 mmHg 79%
    04:00 +18°C° 0 mm 2 mps 679 mmHg 81%
    05:00 +19°C° 0 mm 2 mps 680 mmHg 83%
    06:00 +19°C° 0 mm 2 mps 680 mmHg 85%
    07:00 +21°C° 0 mm 2 mps 681 mmHg 78%
    08:00 +24°C° 0 mm 2 mps 681 mmHg 71%
    09:00 +25°C° 0 mm 2 mps 682 mmHg 63%
    10:00 +27°C° 0 mm 3 mps 682 mmHg 60%
    11:00 +28°C° 0 mm 3 mps 682 mmHg 56%
    12:00 +29°C° 0 mm 3 mps 681 mmHg 52%
    13:00 +28°C° 0 mm 3 mps 681 mmHg 56%
    14:00 +28°C° 0 mm 3 mps 680 mmHg 60%
    15:00 +27°C° 0 mm 2 mps 679 mmHg 64%
    16:00 +25°C° 0 mm 2 mps 679 mmHg 72%
    17:00 +23°C° 0 mm 2 mps 679 mmHg 81%
    18:00 +21°C° 0 mm 1 mps 679 mmHg 89%
    19:00 +21°C° 0 mm 1 mps 679 mmHg 89%
    20:00 +21°C° 0 mm 1 mps 680 mmHg 89%
    21:00 +21°C° 0 mm 1 mps 680 mmHg 88%
    22:00 +21°C° 0 mm 1 mps 680 mmHg 88%
    23:00 +20°C° 0 mm 1 mps 680 mmHg 89%

    18 December, Monday

    Time Temperature Precipitation Wind Pressure Humidity
    00:00 +20°C° 0 mm 1 mps 679 mmHg 89%
    01:00 +20°C° 0 mm 1 mps 679 mmHg 89%
    02:00 +20°C° 0 mm 1 mps 679 mmHg 89%
    03:00 +20°C° 0 mm 1 mps 679 mmHg 89%
    04:00 +20°C° 0.1 mm 1 mps 679 mmHg 89%
    05:00 +20°C° 0.1 mm 1 mps 679 mmHg 89%
    06:00 +20°C° 0.1 mm 1 mps 680 mmHg 89%
    07:00 +21°C° 0 mm 2 mps 680 mmHg 83%
    08:00 +24°C° 0 mm 2 mps 681 mmHg 76%
    09:00 +25°C° 0 mm 2 mps 682 mmHg 69%
    10:00 +26°C° 0.1 mm 2 mps 682 mmHg 66%
    11:00 +27°C° 0.1 mm 2 mps 681 mmHg 63%
    12:00 +28°C° 0.1 mm 3 mps 681 mmHg 60%
    13:00 +28°C° 0.1 mm 3 mps 681 mmHg 62%
    14:00 +27°C° 0.1 mm 2 mps 680 mmHg 64%
    15:00 +26°C° 0.1 mm 2 mps 679 mmHg 65%
    16:00 +25°C° 0 mm 2 mps 679 mmHg 73%
    17:00 +23°C° 0 mm 1 mps 679 mmHg 81%
    18:00 +21°C° 0 mm 1 mps 679 mmHg 89%
    19:00 +21°C° 0 mm 1 mps 680 mmHg 89%
    20:00 +20°C° 0 mm 1 mps 680 mmHg 88%
    21:00 +20°C° 0 mm 1 mps 681 mmHg 88%
    22:00 +20°C° 0 mm 1 mps 680 mmHg 88%
    23:00 +20°C° 0 mm 1 mps 680 mmHg 87%

    19 December, Tuesday

    Time Temperature Precipitation Wind Pressure Humidity
    00:00 +20°C° 0 mm 1 mps 680 mmHg 87%
    01:00 +20°C° 0 mm 1 mps 680 mmHg 87%
    02:00 +20°C° 0 mm 1 mps 679 mmHg 87%
    03:00 +20°C° 0 mm 1 mps 679 mmHg 87%
    04:00 +20°C° 0 mm 1 mps 679 mmHg 87%
    05:00 +20°C° 0 mm 1 mps 680 mmHg 87%
    06:00 +20°C° 0 mm 1 mps 680 mmHg 87%
    07:00 +22°C° 0 mm 1 mps 681 mmHg 79%
    08:00 +24°C° 0 mm 2 mps 682 mmHg 71%
    09:00 +26°C° 0 mm 2 mps 683 mmHg 63%
    10:00 +27°C° 0 mm 2 mps 682 mmHg 60%
    11:00 +28°C° 0 mm 2 mps 682 mmHg 56%
    12:00 +29°C° 0 mm 3 mps 682 mmHg 53%
    13:00 +28°C° 0 mm 2 mps 681 mmHg 57%
    14:00 +27°C° 0 mm 2 mps 680 mmHg 61%
    15:00 +26°C° 0 mm 2 mps 679 mmHg 65%
    16:00 +25°C° 0.1 mm 2 mps 680 mmHg 74%
    17:00 +23°C° 0.1 mm 1 mps 680 mmHg 83%
    18:00 +21°C° 0.1 mm 1 mps 680 mmHg 92%
    19:00 +21°C° 0 mm 1 mps 680 mmHg 91%
    20:00 +21°C° 0 mm 1 mps 680 mmHg 90%
    21:00 +20°C° 0 mm 1 mps 681 mmHg 89%
    22:00 +20°C° 0 mm 1 mps 681 mmHg 89%
    23:00 +20°C° 0 mm 1 mps 680 mmHg 88%
    Show more